Welcome to the New NWS' Forecast!
Most changes are behind the scenes, but click here for differences you might notice.

Regional Weather Roundup (RWR)

Issued by Gray - Portland, ME (GYX)

                            
000
ASUS41 KGYX 170005
RWRGYX
WEATHER ROUNDUP FOR MAINE AND NEW HAMPSHIRE
NATIONAL WEATHER SERVICE GRAY ME
800 PM EDT TUE OCT 16 2018

MEZ002-005-006-010-012-015-018-020-021-024-026-027-029-170100-
MAINE
  
CITY           SKY/WX    TMP DP  RH WIND       PRES   REMARKS
PORTLAND       FAIR      45  34  65 CALM      29.96R                  
6HR MIN TEMP:  45; 6HR MAX TEMP:  57;                                

SANFORD        FAIR      34  33  96 W5        29.96S                  
BAR HARBOR     FAIR      44  30  57 NW5       29.94R                  
WISCASSET      FAIR      39  35  86 CALM      29.97R                  
6HR MIN TEMP:  39; 6HR MAX TEMP:  56;                                

ROCKLAND       FAIR      39  33  79 NW3       29.95R                  
FRYEBURG       FAIR      34  32  92 CALM      29.95S                  
6HR MIN TEMP:  34; 6HR MAX TEMP:  54;                                

LEWISTONAUBURN FAIR      36  31  82 CALM      29.95R                  
AUGUSTA        FAIR      43  28  55 NW8       29.95R                  
6HR MIN TEMP:  43; 6HR MAX TEMP:  53;                                

WATERVILLE     FAIR      41  27  57 W6        29.92F                  
BANGOR         FAIR      43  29  57 VRB3      29.94R                  
6HR MIN TEMP:  43; 6HR MAX TEMP:  54;                                

GREENVILLE       N/A     36  25  64 VRB5      29.85S                  
6HR MIN TEMP:  36; 6HR MAX TEMP:  43;                                

MILLINOCKET    FAIR      42  26  53 VRB6      29.90R                  
6HR MIN TEMP:  42; 6HR MAX TEMP:  48;                                

HOULTON        MOCLDY    39  28  64 SW6       29.83S                  
6HR MIN TEMP:  39; 6HR MAX TEMP:  49;                                

PRESQUE ISLE   CLOUDY    39  26  59 W7        29.82                   
6HR MIN TEMP:  39; 6HR MAX TEMP:  47;                                

FRENCHVILLE    CLOUDY    39  25  57 W12       29.77R                  
6HR MIN TEMP:  39; 6HR MAX TEMP:  48; 6HR PCP: TRACE;                

CARIBOU        FAIR      37  25  61 VRB6      29.79S                  
6HR MIN TEMP:  37; 6HR MAX TEMP:  48;                                

$$

NHZ002-005-008-009-011-012-014-170100-
NEW HAMPSHIRE
  
CITY           SKY/WX    TMP DP  RH WIND       PRES   REMARKS
PORTSMOUTH     PTCLDY    48  33  57 SW7       29.96S                  
ROCHESTER      FAIR      44  35  70 CALM      29.96R                  
6HR MIN TEMP:  44; 6HR MAX TEMP:  56;                                

NASHUA         FAIR      46  35  65 VRB3      30.00S                  
MANCHESTER     FAIR      49  33  54 SW6       29.98R                  
6HR MIN TEMP:  49; 6HR MAX TEMP:  57;                                

CONCORD        FAIR      43  34  70 S6        29.98R                  
6HR MIN TEMP:  43; 6HR MAX TEMP:  56;                                

LACONIA        FAIR      41  35  79 W3        29.96S                  
PLYMOUTH       FAIR      38  33  84 CALM      29.95S                  
BERLIN         FAIR      31  29  92 CALM      29.92S                  
6HR MIN TEMP:  31; 6HR MAX TEMP:  50;                                

WHITEFIELD     FAIR      33  30  88 CALM      29.93S                  
6HR MIN TEMP:  33; 6HR MAX TEMP:  50;                                

JAFFREY        FAIR      40  35  83 CALM      29.99S                  
6HR MIN TEMP:  40; 6HR MAX TEMP:  52;                                

KEENE          FAIR      39  35  86 SW6       30.00S                  
LEBANON        FAIR      45  32  60 S7        29.95S                  
6HR MIN TEMP:  44; 6HR MAX TEMP:  55;                                

MT WASHINGTON  FOG       19  19 100 W47         N/A  VSB 0   WCI  -3  
6HR MIN TEMP:  19; 6HR MAX TEMP:  21;                                

$$

VTZ005-007-008-170100-
VERMONT
  
CITY           SKY/WX    TMP DP  RH WIND       PRES   REMARKS
ST JOHNSBURY     N/A     39  34  82 MISG      29.92S                  
MONTPELIER     MOCLDY    43  30  60 SW7       29.97S                  
BURLINGTON     FAIR      47  31  53 SW6       29.94F                  
$$

MAZ007-012-024-CTZ003-RIZ002-NYZ038-NYZ072-170100-
SOUTHERN NEW ENGLAND AND NY
  
CITY           SKY/WX    TMP DP  RH WIND       PRES   REMARKS
BOSTON         FAIR      53  33  46 W8        30.01R                  
WORCESTER      FAIR      42  33  70 SW5       30.00S                  
NANTUCKET      FAIR      53  39  59 W16       30.02S                  
PROVIDENCE     MOCLDY    48  38  68 SW9       30.03S                  
HARTFORD       FAIR      47  37  68 SW6       30.02F                  
ALBANY         FAIR      45  35  68 CALM      30.02S                  
NEW YORK CITY  MOCLDY    54  34  46 SW12      30.07R                  
$$

ANZ081-ANZ082-ANZ150-NHZ014-MEZ023>029-170100-
COASTAL MARINE OBSERVATIONS
  
STATION/POSITION TIME  TEMP    WIND        PRES    WAVE
                       AIR SEA DIR/SP/G            HT/PER
                 (UTC) (F)     (DEG/KT/KT) (MB)    (FT/S)
MOUNT DESERT ROC 0000   51     300/ 15/ 16 1013.5R
MATINICUS ROCK   2300   53     310/ 16/ 18 1013.1R
ISLE OF SHOALS   2300   54     260/ 17/ 19 1014.4R
JEFFREYS LEDGE   2306      57                N/A     3/ 4
$$

.............KEY..............
   WCI - WIND CHILL
   TC  - TEMPERATURE IN CELSIUS
   VSB - VISIBILITY IN MILES
   HX  - HEAT INDEX
   FAIR- INDICATES FEW OR NO CLOUDS BELOW 12,000 FT, WITH NO 
         SIGNIFICANT WEATHER AND/OR OBSTRUCTIONS TO VISIBILITY.